This is the latest recevied weather packets stored in our database for station/object KQ7A. If no packets are shown the sender has not sent any weather packets the latest 10 day(s).
| Time | Temp. | Humidity | Pressure | Rain* | Wind** | Luminosity | Snow |
|---|---|---|---|---|---|---|---|
| 1788675759 | 17.22° C | 34% | 1016.9 hPa | 0 mm | - | 0 W/m² | - |
| 1788675455 | 17.78° C | 34% | 1016.8 hPa | 0 mm | - | 0 W/m² | - |
| 1788675151 | 17.22° C | 35% | 1016.9 hPa | 0 mm | - | 0 W/m² | - |
| 1788674846 | 17.78° C | 33% | 1016.9 hPa | 0 mm | - | 0 W/m² | - |
| 1788674544 | 16.67° C | 38% | 1017.1 hPa | 0 mm | - | 0 W/m² | - |
| 1788674239 | 16.67° C | 38% | 1017 hPa | 0 mm | - | 0 W/m² | - |
| 1788673935 | 17.22° C | 37% | 1017 hPa | 0 mm | - | 0 W/m² | - |
| 1788673630 | 16.11° C | 34% | 1017 hPa | 0 mm | - | 0 W/m² | - |
| 1788673324 | 15.56° C | 36% | 1016.9 hPa | 0 mm | - | 0 W/m² | - |
| 1788673021 | 13.33° C | 43% | 1017.1 hPa | 0 mm | - | 0 W/m² | - |
| 1788672715 | 13.33° C | 46% | 1017.1 hPa | 0 mm | - | 0 W/m² | - |
| 1788672405 | 13.89° C | 49% | 1017.1 hPa | 0 mm | - | 0 W/m² | - |
| 1788672102 | 13.89° C | 48% | 1017 hPa | 0 mm | - | 0 W/m² | - |
| 1788671798 | 13.89° C | 46% | 1017 hPa | 0 mm | - | 0 W/m² | - |
| 1788671498 | 13.89° C | 50% | 1016.8 hPa | 0 mm | - | 0 W/m² | - |
| 1788671193 | 15° C | 47% | 1017.1 hPa | 0 mm | - | 0 W/m² | - |
| 1788670888 | 15.56° C | 45% | 1017.3 hPa | 0 mm | - | 0 W/m² | - |
| 1788670587 | 15° C | 42% | 1017.3 hPa | 0 mm | - | 0 W/m² | - |
| 1788670282 | 15.56° C | 46% | 1017 hPa | 0 mm | - | 0 W/m² | - |
| 1788669978 | 16.11° C | 41% | 1016.9 hPa | 0 mm | - | 0 W/m² | - |
| 1788669673 | 15° C | 46% | 1017 hPa | 0 mm | - | 0 W/m² | - |
| 1788669370 | 16.11° C | 44% | 1016.8 hPa | 0 mm | - | 0 W/m² | - |
| 1788669065 | 17.78° C | 37% | 1016.6 hPa | 0 mm | - | 0 W/m² | - |
| 1788668764 | 17.22° C | 33% | 1016.8 hPa | 0 mm | - | 0 W/m² | - |
| 1788668458 | 15.56° C | 46% | 1016.7 hPa | 0 mm | - | 0 W/m² | - |
* Rain latest hour (hover to see other rain measurements)
** Current wind speed in m/s (hover to see current wind gust speed)